Location: Landeleau
(48.2273°N, 3.7285°W)
Time: 04:40:07
(UTC+00:00)

Cosmos 1980 Rocket - Pass Details

Date: 30 March 2020
Orbit: 828 x 851 km, 71.0° (Epoch: 01 June)

Event Time Altitude Azimuth Distance (km) Brightness Sun altitude
Rises 22:29:19 0° 337° (NNW) 3,383 6.4 -32.3°
Reaches altitude 10° 22:32:31 10° 355° (N) 2,449 5.3 -32.6°
Maximum altitude 22:36:27 19° 40° (NE) 1,887 4.1 -32.9°
Enters shadow 22:36:32 19° 41° (NE) 1,887 4.1 -32.9°
